Content
SEND FEEDBACK

Daily
Averages
Monthly
Summary
United Kingdom

LONDON, ENGLAND


Home > Europe > United Kingdom > England
Elevation: 203 feet     Latitude: 51 09N     Longitude: 000 11W

WEATHER
 
SELECT A DAY
Number of Records: 297,098;   Date Range: 7/1/96 - 10/19/14
 
SHARE

PRINT THIS DATA

[ ← Previous Day ]
WEATHER ALMANAC - SEPTEMBER 28, 2013
[ Next Day → ]
[ °C ]   °F
Weather ElementAverageHighLow
Temperature58 °F64.4 °F (1:20 pm)51.8 °F (12:50 am)
Dewpoint53.2 °F57.2 °F (11:20 am)50 °F (12:50 am)
Humidity84.6 %100 % (1:20 am)68 % (4:20 pm)
Barometer29.79 in29.89 in (12:50 am)29.74 in (4:20 pm)
Wind Speed10.1 mph17.3 mph (4:50 pm)
Weather ElementAverage
Visibility4.4 mi
Wind DirectionENE (73 °)

Weather ElementTotal
Precipitation---
Heating Degree Days6.9 (Base 65)
Growing Degree Days8.1 (Base 50)
Averaged from 47 records on September 28, 2013
WEATHER CONDITIONS BREAKOUT
WIND DIRECTION BREAKOUT
WEATHER BY HOUR - SEPTEMBER 28, 2013
[ °C ]   °F
Local TimeTemperatureDewpointHumidityBarometerVisibilityWind DirectionWind SpeedGust SpeedPrecipitationEventsConditions
12:50 AM51.8 °F50.0 °F94 %29.89 in1.9 miEast (80°)4.6 mphHaze
1:20 AM51.8 °F51.8 °F100 %29.89 in1.9 miENE (70°)6.9 mphHaze
1:50 AM53.6 °F51.8 °F94 %29.86 in1.6 miENE (70°)8.1 mphHaze
2:20 AM53.6 °F51.8 °F94 %29.86 in1.6 miENE (70°)11.5 mphHaze
2:50 AM53.6 °F51.8 °F94 %29.83 in3.1 miENE (70°)9.2 mphHaze
3:20 AM55.4 °F51.8 °F88 %29.83 in3.7 miENE (70°)9.2 mph
3:50 AM55.4 °F51.8 °F88 %29.83 in3.7 miEast (80°)6.9 mph
4:20 AM53.6 °F51.8 °F94 %29.83 in3.7 miENE (70°)5.8 mph
4:50 AM55.4 °F51.8 °F88 %29.83 in4.3 miEast (80°)5.8 mph
5:20 AM55.4 °F51.8 °F88 %29.83 in4.3 miEast (90°)8.1 mph
5:50 AM53.6 °F51.8 °F94 %29.83 in4.3 miENE (70°)6.9 mph
6:20 AM53.6 °F51.8 °F94 %29.83 in4.3 miENE (70°)6.9 mph
6:50 AM53.6 °F51.8 °F94 %29.80 in4.3 miENE (60°)8.1 mph
7:20 AM53.6 °F51.8 °F94 %29.80 in4.3 miEast (80°)8.1 mph
7:50 AM53.6 °F51.8 °F94 %29.83 in3.7 miEast (90°)4.6 mph
8:20 AM53.6 °F51.8 °F94 %29.83 in3.7 miENE (60°)6.9 mph
8:50 AM55.4 °F53.6 °F94 %29.83 in4.3 miENE (70°)8.1 mph
9:20 AM59.0 °F53.6 °F82 %29.83 in4.3 miEast (80°)9.2 mph
9:50 AM60.8 °F55.4 °F82 %29.80 in5.6 miENE (70°)11.5 mph
10:20 AM59.0 °F55.4 °F88 %29.80 in5.6 miEast (90°)8.1 mph
10:50 AM60.8 °F55.4 °F82 %29.80 in5.6 miEast (80°)5.8 mph
11:20 AM62.6 °F57.2 °F82 %29.80 in5.6 miENE (60°)9.2 mph
11:50 AM62.6 °F55.4 °F77 %29.80 in6.2 miEast (80°)10.4 mphPartly Cloudy
12:20 PM62.6 °F55.4 °F77 %29.80 in5.6 miEast (90°)9.2 mphRainLight Rain
12:50 PM62.6 °F57.2 °F82 %29.80 inEast (80°)10.4 mphClear
1:20 PM64.4 °F55.4 °F73 %29.80 inEast (80°)11.5 mphClear
1:50 PM62.6 °F55.4 °F77 %29.77 inEast (80°)10.4 mphClear
2:20 PM62.6 °F55.4 °F77 %29.77 in6.2 miEast (80°)10.4 mphPartly Cloudy
2:50 PM62.6 °F57.2 °F82 %29.77 inENE (70°)11.5 mphClear
3:20 PM62.6 °F57.2 °F82 %29.77 inENE (60°)13.8 mphClear
3:50 PM64.4 °F55.4 °F73 %29.77 inENE (70°)11.5 mphClear
4:20 PM64.4 °F53.6 °F68 %29.74 inENE (70°)16.1 mphClear
4:50 PM62.6 °F51.8 °F68 %29.74 inENE (60°)17.3 mphClear
5:20 PM60.8 °F51.8 °F72 %29.74 inENE (70°)16.1 mphClear
5:50 PM60.8 °F50.0 °F68 %29.74 inENE (60°)15.0 mphClear
6:20 PM59.0 °F51.8 °F77 %29.74 inENE (70°)13.8 mphClear
6:50 PM59.0 °F51.8 °F77 %29.74 inENE (70°)12.7 mphClear
7:20 PM59.0 °F51.8 °F77 %29.74 inENE (70°)11.5 mphClear
7:50 PM59.0 °F51.8 °F77 %29.74 inENE (60°)13.8 mphClear
8:20 PM59.0 °F51.8 °F77 %29.77 in6.2 miENE (70°)13.8 mphRainLight Rain
8:50 PM59.0 °F51.8 °F77 %29.77 in6.2 miENE (70°)12.7 mphRainLight Rain
9:20 PM59.0 °F51.8 °F77 %29.77 in6.2 miEast (80°)11.5 mphRainLight Rain
9:50 PM57.2 °F53.6 °F88 %29.77 in5.0 miEast (80°)11.5 mphRainLight Rain
10:20 PM55.4 °F53.6 °F94 %29.74 in4.3 miENE (60°)11.5 mphRainLight Rain
10:50 PM55.4 °F53.6 °F94 %29.74 in4.3 miENE (70°)10.4 mphRainLight Rain
11:20 PM55.4 °F53.6 °F94 %29.74 in5.0 miENE (70°)9.2 mph
11:50 PM55.4 °F53.6 °F94 %29.74 in5.0 miEast (80°)8.1 mph
Hourly data recorded from EGKK, located miles away from London, England







STORIES FROM OUR PARTNERS